Location: New Orleans
(29.9540°N, 90.0750°W)
Time: 08:42:13
(UTC-06:00)

ISS - Visible Passes

Search period start: 18 December 2017 00:00
Search period end: 28 December 2017 00:00
Orbit: 402 x 406 km, 51.6° (Epoch: 18 December)

Date Brightness Start Highest point End Pass type
(mag) Time Alt. Az. Time Alt. Az. Time Alt. Az.
18 Dec -2.8 17:44:14 10° NW 17:47:26 51° SW 17:50:36 10° SSE visible
20 Dec -0.5 17:36:59 10° W 17:39:09 16° SW 17:41:18 10° SSW visible
24 Dec -0.7 05:59:15 10° S 06:01:38 19° SE 06:04:02 10° E visible
26 Dec -3.3 05:50:01 10° SSW 05:53:14 60° SE 05:56:28 10° NE visible
27 Dec -1.6 04:59:43 19° SSE 05:00:59 25° SE 05:03:43 10° ENE visible
